Time,TemperatureF,DewpointF,PressureIn,WindDirection,WindDirectionDegrees,WindSpeedMPH,WindSpeedGustMPH,Humidity,HourlyPrecipIn,Conditions,Clouds,dailyrainin,SoftwareType,DateUTC
2013-01-28 00:00:00,69.2,65.2,29.99,SE,138,3.0,13.0,87,0.00,,---,0.00,VWS V14.01,2013-01-28 06:00:00,
2013-01-28 00:05:00,69.2,65.2,29.99,SE,141,7.0,13.0,87,0.00,,---,0.00,VWS V14.01,2013-01-28 06:05:00,
2013-01-28 00:10:00,69.2,65.2,29.98,ESE,115,7.0,13.0,87,0.00,,---,0.00,VWS V14.01,2013-01-28 06:10:00,
2013-01-28 00:15:00,69.1,65.1,29.98,NE,49,12.0,13.0,87,0.00,,---,0.00,VWS V14.01,2013-01-28 06:15:00,
2013-01-28 00:20:00,69.1,65.1,29.98,SE,143,6.0,13.0,87,0.00,,---,0.00,VWS V14.01,2013-01-28 06:20:00,
2013-01-28 00:25:00,69.0,65.0,29.98,SSE,149,4.0,13.0,87,0.00,,---,0.00,VWS V14.01,2013-01-28 06:25:00,
2013-01-28 00:30:00,69.0,65.0,29.98,SE,141,6.0,13.0,87,0.00,,---,0.00,VWS V14.01,2013-01-28 06:30:00,
2013-01-28 00:35:00,69.0,65.0,29.98,SE,145,6.0,10.0,87,0.00,,---,0.00,VWS V14.01,2013-01-28 06:35:00,
2013-01-28 00:40:00,69.0,65.0,29.98,SSW,195,4.0,10.0,87,0.00,,---,0.00,VWS V14.01,2013-01-28 06:40:00,
2013-01-28 00:45:00,69.0,65.0,29.98,SSW,194,6.0,10.0,87,0.00,,---,0.00,VWS V14.01,2013-01-28 06:45:00,
2013-01-28 00:50:00,69.0,65.3,29.98,SE,139,3.0,10.0,88,0.00,,---,0.00,VWS V14.01,2013-01-28 06:50:00,
2013-01-28 00:55:00,68.9,65.2,29.99,SSE,165,4.0,13.0,88,0.00,,---,0.00,VWS V14.01,2013-01-28 06:55:00,
2013-01-28 01:00:00,68.9,65.2,29.99,SE,135,2.0,13.0,88,0.00,,---,0.00,VWS V14.01,2013-01-28 07:00:00,
2013-01-28 01:05:00,68.9,65.2,29.99,SE,140,4.0,9.0,88,0.00,,---,0.00,VWS V14.01,2013-01-28 07:05:00,
2013-01-28 01:10:00,68.9,65.2,29.99,SSE,148,4.0,9.0,88,0.00,,---,0.00,VWS V14.01,2013-01-28 07:10:00,
2013-01-28 01:15:00,68.9,65.2,29.99,ESE,115,3.0,10.0,88,0.00,,---,0.00,VWS V14.01,2013-01-28 07:15:00,
2013-01-28 01:20:00,68.9,65.2,29.99,SSW,194,4.0,11.0,88,0.00,,---,0.00,VWS V14.01,2013-01-28 07:20:00,
2013-01-28 01:25:00,68.9,65.2,29.98,SE,128,5.0,11.0,88,0.00,,---,0.00,VWS V14.01,2013-01-28 07:25:00,
2013-01-28 01:30:00,69.0,65.3,29.99,SE,134,6.0,11.0,88,0.00,,---,0.00,VWS V14.01,2013-01-28 07:30:00,
2013-01-28 01:35:00,68.9,65.2,29.98,SE,135,4.0,10.0,88,0.00,,---,0.00,VWS V14.01,2013-01-28 07:35:00,
2013-01-28 01:40:00,69.0,65.3,29.98,SE,135,6.0,10.0,88,0.00,,---,0.00,VWS V14.01,2013-01-28 07:40:00,
2013-01-28 01:45:00,68.9,65.2,29.99,SE,143,6.0,10.0,88,0.00,,---,0.00,VWS V14.01,2013-01-28 07:45:00,
2013-01-28 01:50:00,68.9,65.2,29.99,South,169,6.0,10.0,88,0.00,,---,0.00,VWS V14.01,2013-01-28 07:50:00,
2013-01-28 01:55:00,68.9,65.2,29.98,South,170,7.0,11.0,88,0.00,,---,0.00,VWS V14.01,2013-01-28 07:55:00,
2013-01-28 02:00:00,68.9,65.2,29.98,SSE,150,2.0,11.0,88,0.00,,---,0.00,VWS V14.01,2013-01-28 08:00:00,
2013-01-28 02:05:00,68.9,65.2,29.98,SSE,163,4.0,8.0,88,0.00,,---,0.00,VWS V14.01,2013-01-28 08:05:00,
2013-01-28 02:10:00,68.9,65.2,29.98,East,94,6.0,12.0,88,0.00,,---,0.00,VWS V14.01,2013-01-28 08:10:00,
2013-01-28 02:15:00,68.9,65.2,29.98,SE,125,5.0,12.0,88,0.00,,---,0.00,VWS V14.01,2013-01-28 08:15:00,
2013-01-28 02:20:00,68.9,65.2,29.98,SSW,212,4.0,12.0,88,0.00,,---,0.00,VWS V14.01,2013-01-28 08:20:00,
2013-01-28 02:25:00,68.8,65.1,29.98,SSW,200,4.0,12.0,88,0.00,,---,0.00,VWS V14.01,2013-01-28 08:25:00,
2013-01-28 02:30:00,68.8,65.1,29.98,SSE,148,3.0,12.0,88,0.00,,---,0.00,VWS V14.01,2013-01-28 08:30:00,
2013-01-28 02:35:00,68.8,65.1,29.98,SSE,148,3.0,8.0,88,0.00,,---,0.00,VWS V14.01,2013-01-28 08:35:00,
2013-01-28 02:40:00,68.8,65.1,29.98,SE,143,6.0,9.0,88,0.00,,---,0.00,VWS V14.01,2013-01-28 08:40:00,
2013-01-28 02:45:00,68.8,65.1,29.98,SE,125,3.0,11.0,88,0.00,,---,0.00,VWS V14.01,2013-01-28 08:45:00,
2013-01-28 02:50:00,68.7,65.0,29.98,SE,129,4.0,11.0,88,0.00,,---,0.00,VWS V14.01,2013-01-28 08:50:00,
2013-01-28 02:55:00,68.7,65.0,29.98,SSE,163,2.0,11.0,88,0.00,,---,0.00,VWS V14.01,2013-01-28 08:55:00,
2013-01-28 03:00:00,68.6,64.9,29.98,East,99,3.0,11.0,88,0.00,,---,0.00,VWS V14.01,2013-01-28 09:00:00,
2013-01-28 03:05:00,68.6,64.9,29.98,ESE,117,4.0,7.0,88,0.00,,---,0.00,VWS V14.01,2013-01-28 09:05:00,
2013-01-28 03:10:00,68.6,64.9,29.97,SE,132,2.0,9.0,88,0.00,,---,0.00,VWS V14.01,2013-01-28 09:10:00,
2013-01-28 03:15:00,68.6,64.9,29.97,South,183,4.0,9.0,88,0.00,,---,0.00,VWS V14.01,2013-01-28 09:15:00,
2013-01-28 03:20:00,68.5,65.1,29.97,SSW,200,3.0,9.0,89,0.00,,---,0.00,VWS V14.01,2013-01-28 09:20:00,
2013-01-28 03:25:00,68.5,65.1,29.97,SSW,205,9.0,9.0,89,0.00,,---,0.00,VWS V14.01,2013-01-28 09:25:00,
2013-01-28 03:30:00,68.5,65.1,29.98,SSW,198,4.0,10.0,89,0.00,,---,0.00,VWS V14.01,2013-01-28 09:30:00,
2013-01-28 03:35:00,68.5,65.1,29.98,SSE,159,4.0,7.0,89,0.00,,---,0.00,VWS V14.01,2013-01-28 09:35:00,
2013-01-28 03:40:00,68.5,65.1,29.98,SE,131,3.0,8.0,89,0.00,,---,0.00,VWS V14.01,2013-01-28 09:40:00,
2013-01-28 03:45:00,68.5,65.1,29.98,SSE,158,2.0,8.0,89,0.00,,---,0.00,VWS V14.01,2013-01-28 09:45:00,
2013-01-28 03:50:00,68.5,65.1,29.98,SE,135,3.0,8.0,89,0.00,,---,0.00,VWS V14.01,2013-01-28 09:50:00,
2013-01-28 03:55:00,68.5,65.1,29.98,SE,124,3.0,8.0,89,0.00,,---,0.00,VWS V14.01,2013-01-28 09:55:00,
2013-01-28 04:00:00,68.5,65.1,29.98,ESE,121,2.0,8.0,89,0.00,,---,0.00,VWS V14.01,2013-01-28 10:00:00,
2013-01-28 04:05:00,68.4,65.0,29.97,SW,223,3.0,7.0,89,0.00,,---,0.00,VWS V14.01,2013-01-28 10:05:00,
2013-01-28 04:10:00,68.4,65.0,29.97,SE,145,3.0,7.0,89,0.00,,---,0.00,VWS V14.01,2013-01-28 10:10:00,
2013-01-28 04:15:00,68.4,65.0,29.97,SSW,203,6.0,7.0,89,0.00,,---,0.00,VWS V14.01,2013-01-28 10:15:00,
2013-01-28 04:20:00,68.4,65.0,29.97,SE,130,4.0,7.0,89,0.00,,---,0.00,VWS V14.01,2013-01-28 10:20:00,
2013-01-28 04:25:00,68.3,64.9,29.97,SE,142,2.0,7.0,89,0.00,,---,0.00,VWS V14.01,2013-01-28 10:25:00,
2013-01-28 04:30:00,68.3,64.9,29.97,SSE,148,2.0,7.0,89,0.00,,---,0.00,VWS V14.01,2013-01-28 10:30:00,
2013-01-28 04:35:00,68.3,65.3,29.97,SE,133,1.0,6.0,90,0.00,,---,0.00,VWS V14.01,2013-01-28 10:35:00,
2013-01-28 04:40:00,68.3,65.3,29.97,SE,141,4.0,6.0,90,0.00,,---,0.00,VWS V14.01,2013-01-28 10:40:00,
2013-01-28 04:45:00,68.3,65.3,29.97,South,174,4.0,6.0,90,0.00,,---,0.00,VWS V14.01,2013-01-28 10:45:00,
2013-01-28 04:50:00,68.3,65.3,29.97,SE,135,4.0,6.0,90,0.00,,---,0.00,VWS V14.01,2013-01-28 10:50:00,
2013-01-28 04:55:00,68.3,65.3,29.97,SE,135,2.0,6.0,90,0.00,,---,0.00,VWS V14.01,2013-01-28 10:55:00,
2013-01-28 05:00:00,68.3,65.3,29.97,East,81,2.0,6.0,90,0.00,,---,0.00,VWS V14.01,2013-01-28 11:00:00,
2013-01-28 05:05:00,68.3,65.3,29.97,SSW,200,2.0,6.0,90,0.00,,---,0.00,VWS V14.01,2013-01-28 11:05:00,
2013-01-28 05:10:00,68.3,65.3,29.97,South,176,4.0,8.0,90,0.00,,---,0.00,VWS V14.01,2013-01-28 11:10:00,
2013-01-28 05:15:00,68.3,65.3,29.97,SE,143,2.0,8.0,90,0.00,,---,0.00,VWS V14.01,2013-01-28 11:15:00,
2013-01-28 05:20:00,68.3,65.3,29.97,SSE,162,2.0,8.0,90,0.00,,---,0.00,VWS V14.01,2013-01-28 11:20:00,
2013-01-28 05:25:00,68.3,65.3,29.97,South,183,4.0,8.0,90,0.00,,---,0.00,VWS V14.01,2013-01-28 11:25:00,
2013-01-28 05:30:00,68.4,65.4,29.97,SE,130,3.0,9.0,90,0.00,,---,0.00,VWS V14.01,2013-01-28 11:30:00,
2013-01-28 05:35:00,68.4,65.4,29.97,SE,125,2.0,9.0,90,0.00,,---,0.00,VWS V14.01,2013-01-28 11:35:00,
2013-01-28 05:40:00,68.4,65.4,29.97,ESE,121,3.0,9.0,90,0.00,,---,0.00,VWS V14.01,2013-01-28 11:40:00,
2013-01-28 05:45:00,68.4,65.4,29.97,SSE,147,3.0,9.0,90,0.00,,---,0.00,VWS V14.01,2013-01-28 11:45:00,
2013-01-28 05:50:00,68.4,65.4,29.97,SSE,150,3.0,9.0,90,0.00,,---,0.00,VWS V14.01,2013-01-28 11:50:00,
2013-01-28 05:55:00,68.3,65.3,29.97,SE,143,5.0,9.0,90,0.00,,---,0.00,VWS V14.01,2013-01-28 11:55:00,
2013-01-28 06:00:00,68.3,65.3,29.97,SE,134,4.0,9.0,90,0.00,,---,0.00,VWS V14.01,2013-01-28 12:00:00,
2013-01-28 06:05:00,68.3,65.3,29.97,ESE,119,4.0,7.0,90,0.00,,---,0.00,VWS V14.01,2013-01-28 12:05:00,
2013-01-28 06:10:00,68.3,65.3,29.97,East,80,4.0,7.0,90,0.00,,---,0.00,VWS V14.01,2013-01-28 12:10:00,
2013-01-28 06:15:00,68.4,65.4,29.97,East,91,7.0,9.0,90,0.00,,---,0.00,VWS V14.01,2013-01-28 12:15:00,
2013-01-28 06:20:00,68.2,65.2,29.97,South,184,6.0,9.0,90,0.00,,---,0.00,VWS V14.01,2013-01-28 12:20:00,
2013-01-28 06:25:00,68.1,65.4,29.97,South,184,5.0,9.0,91,0.00,,---,0.00,VWS V14.01,2013-01-28 12:25:00,
2013-01-28 06:30:00,67.9,65.2,29.97,ESE,108,3.0,9.0,91,0.00,,---,0.00,VWS V14.01,2013-01-28 12:30:00,
2013-01-28 06:35:00,67.8,65.1,29.97,South,173,4.0,6.0,91,0.00,,---,0.00,VWS V14.01,2013-01-28 12:35:00,
2013-01-28 06:40:00,67.7,65.0,29.97,SSE,148,4.0,6.0,91,0.00,,---,0.00,VWS V14.01,2013-01-28 12:40:00,
2013-01-28 06:45:00,67.6,65.2,29.97,SSW,198,2.0,8.0,92,0.00,,---,0.00,VWS V14.01,2013-01-28 12:45:00,
2013-01-28 06:50:00,67.5,65.1,29.98,SE,124,3.0,8.0,92,0.00,,---,0.00,VWS V14.01,2013-01-28 12:50:00,
2013-01-28 06:55:00,67.6,65.2,29.98,South,188,3.0,8.0,92,0.00,,---,0.00,VWS V14.01,2013-01-28 12:55:00,
2013-01-28 07:00:00,67.5,65.1,29.98,SE,127,1.0,8.0,92,0.00,,---,0.00,VWS V14.01,2013-01-28 13:00:00,
2013-01-28 07:05:00,67.6,65.2,29.98,SSE,162,2.0,5.0,92,0.00,,---,0.00,VWS V14.01,2013-01-28 13:05:00,
2013-01-28 07:10:00,67.6,65.2,29.98,SSE,155,4.0,8.0,92,0.00,,---,0.00,VWS V14.01,2013-01-28 13:10:00,
2013-01-28 07:15:00,67.6,65.2,29.99,South,174,3.0,8.0,92,0.00,,---,0.00,VWS V14.01,2013-01-28 13:15:00,
2013-01-28 07:20:00,67.7,65.6,29.99,ESE,106,2.0,8.0,93,0.00,,---,0.00,VWS V14.01,2013-01-28 13:20:00,
2013-01-28 07:25:00,67.7,65.6,29.99,ESE,122,5.0,8.0,93,0.00,,---,0.00,VWS V14.01,2013-01-28 13:25:00,
2013-01-28 07:30:00,67.8,65.4,29.99,SE,142,2.0,8.0,92,0.00,,---,0.00,VWS V14.01,2013-01-28 13:30:00,
2013-01-28 07:35:00,67.9,65.5,29.99,SSW,203,4.0,8.0,92,0.00,,---,0.00,VWS V14.01,2013-01-28 13:35:00,
2013-01-28 07:40:00,67.9,65.5,29.99,SSE,148,3.0,10.0,92,0.00,,---,0.00,VWS V14.01,2013-01-28 13:40:00,
2013-01-28 07:45:00,67.9,65.8,29.99,SE,128,5.0,10.0,93,0.00,,---,0.00,VWS V14.01,2013-01-28 13:45:00,
2013-01-28 07:50:00,68.0,65.6,30.00,SSE,148,3.0,10.0,92,0.00,,---,0.00,VWS V14.01,2013-01-28 13:50:00,
2013-01-28 07:55:00,68.0,65.9,30.00,SSE,165,3.0,10.0,93,0.00,,---,0.00,VWS V14.01,2013-01-28 13:55:00,
2013-01-28 08:00:00,68.1,65.7,30.00,SSE,167,4.0,10.0,92,0.00,,---,0.00,VWS V14.01,2013-01-28 14:00:00,
2013-01-28 08:05:00,68.1,65.7,30.00,South,173,3.0,7.0,92,0.00,,---,0.00,VWS V14.01,2013-01-28 14:05:00,
2013-01-28 08:10:00,68.1,65.7,30.00,SE,135,2.0,7.0,92,0.00,,---,0.00,VWS V14.01,2013-01-28 14:10:00,
2013-01-28 08:15:00,68.2,65.8,30.00,SE,142,5.0,7.0,92,0.00,,---,0.00,VWS V14.01,2013-01-28 14:15:00,
2013-01-28 08:20:00,68.4,66.0,30.00,SE,141,2.0,8.0,92,0.00,,---,0.00,VWS V14.01,2013-01-28 14:20:00,
2013-01-28 08:25:00,68.4,66.0,30.00,SSE,151,4.0,8.0,92,0.00,,---,0.00,VWS V14.01,2013-01-28 14:25:00,
2013-01-28 08:30:00,68.5,66.1,30.00,SSE,156,5.0,8.0,92,0.00,,---,0.00,VWS V14.01,2013-01-28 14:30:00,
2013-01-28 08:35:00,68.6,66.2,30.00,SE,146,3.0,8.0,92,0.00,,---,0.00,VWS V14.01,2013-01-28 14:35:00,
2013-01-28 08:40:00,68.6,66.2,30.00,SSE,152,5.0,8.0,92,0.00,,---,0.00,VWS V14.01,2013-01-28 14:40:00,
2013-01-28 08:45:00,68.7,66.0,30.00,SSW,211,5.0,10.0,91,0.00,,---,0.00,VWS V14.01,2013-01-28 14:45:00,
2013-01-28 08:50:00,68.8,66.1,30.00,SW,235,4.0,10.0,91,0.00,,---,0.00,VWS V14.01,2013-01-28 14:50:00,
2013-01-28 08:55:00,68.9,66.2,30.00,SE,133,5.0,10.0,91,0.00,,---,0.00,VWS V14.01,2013-01-28 14:55:00,
2013-01-28 09:00:00,69.0,66.3,30.00,SW,215,6.0,10.0,91,0.00,,---,0.00,VWS V14.01,2013-01-28 15:00:00,
2013-01-28 09:05:00,69.1,66.4,30.00,SSE,162,4.0,8.0,91,0.00,,---,0.00,VWS V14.01,2013-01-28 15:05:00,
2013-01-28 09:10:00,69.2,66.2,30.01,ESE,106,7.0,13.0,90,0.00,,---,0.00,VWS V14.01,2013-01-28 15:10:00,
2013-01-28 09:15:00,69.3,66.2,30.01,SE,139,6.0,13.0,90,0.00,,---,0.00,VWS V14.01,2013-01-28 15:15:00,
2013-01-28 09:20:00,69.3,66.2,30.01,SSE,157,6.0,13.0,90,0.00,,---,0.00,VWS V14.01,2013-01-28 15:20:00,
2013-01-28 09:25:00,69.4,66.3,30.01,SSE,159,5.0,14.0,90,0.00,,---,0.00,VWS V14.01,2013-01-28 15:25:00,
2013-01-28 09:30:00,69.5,66.1,30.01,SW,221,3.0,14.0,89,0.00,,---,0.00,VWS V14.01,2013-01-28 15:30:00,
2013-01-28 09:35:00,69.6,66.2,30.01,SSE,165,6.0,7.0,89,0.00,,---,0.00,VWS V14.01,2013-01-28 15:35:00,
2013-01-28 09:40:00,69.7,66.3,30.01,SSE,153,3.0,12.0,89,0.00,,---,0.00,VWS V14.01,2013-01-28 15:40:00,
2013-01-28 09:45:00,69.9,66.2,30.01,ESE,122,3.0,12.0,88,0.00,,---,0.00,VWS V14.01,2013-01-28 15:45:00,
2013-01-28 09:50:00,70.0,66.3,30.01,SSE,166,3.0,12.0,88,0.00,,---,0.00,VWS V14.01,2013-01-28 15:50:00,
2013-01-28 09:55:00,70.1,66.4,30.01,SE,145,3.0,12.0,88,0.00,,---,0.00,VWS V14.01,2013-01-28 15:55:00,
2013-01-28 10:00:00,70.2,66.2,30.01,SSE,164,4.0,12.0,87,0.00,,---,0.00,VWS V14.01,2013-01-28 16:00:00,
2013-01-28 10:05:00,70.3,66.2,30.01,SE,143,9.0,13.0,87,0.00,,---,0.00,VWS V14.01,2013-01-28 16:05:00,
2013-01-28 10:10:00,70.3,66.2,30.01,East,99,6.0,13.0,87,0.00,,---,0.00,VWS V14.01,2013-01-28 16:10:00,
2013-01-28 10:15:00,70.4,66.3,30.01,SSE,165,4.0,13.0,87,0.00,,---,0.00,VWS V14.01,2013-01-28 16:15:00,
2013-01-28 10:20:00,70.5,66.1,30.01,SSE,159,5.0,13.0,86,0.00,,---,0.00,VWS V14.01,2013-01-28 16:20:00,
2013-01-28 10:25:00,70.7,66.3,30.01,SE,142,7.0,13.0,86,0.00,,---,0.00,VWS V14.01,2013-01-28 16:25:00,
2013-01-28 10:30:00,70.7,66.3,30.00,South,179,6.0,13.0,86,0.00,,---,0.00,VWS V14.01,2013-01-28 16:30:00,
2013-01-28 10:35:00,70.9,66.2,30.00,SSE,162,6.0,10.0,85,0.00,,---,0.00,VWS V14.01,2013-01-28 16:35:00,
2013-01-28 10:40:00,71.0,66.3,30.00,ESE,110,5.0,12.0,85,0.00,,---,0.00,VWS V14.01,2013-01-28 16:40:00,
2013-01-28 10:45:00,71.4,66.7,30.00,SSW,207,7.0,12.0,85,0.00,,---,0.00,VWS V14.01,2013-01-28 16:45:00,
2013-01-28 10:50:00,71.5,66.4,30.00,SSW,194,5.0,12.0,84,0.00,,---,0.00,VWS V14.01,2013-01-28 16:50:00,
2013-01-28 10:55:00,71.6,66.5,30.00,ESE,120,4.0,12.0,84,0.00,,---,0.00,VWS V14.01,2013-01-28 16:55:00,
2013-01-28 11:00:00,71.9,66.5,30.00,SSE,158,4.0,12.0,83,0.00,,---,0.00,VWS V14.01,2013-01-28 17:00:00,
2013-01-28 11:05:00,72.0,66.2,30.00,WSW,240,5.0,11.0,82,0.00,,---,0.00,VWS V14.01,2013-01-28 17:05:00,
2013-01-28 11:10:00,72.1,66.3,30.00,SE,129,8.0,12.0,82,0.00,,---,0.00,VWS V14.01,2013-01-28 17:10:00,
2013-01-28 11:15:00,72.2,66.4,29.99,SSE,162,10.0,12.0,82,0.00,,---,0.00,VWS V14.01,2013-01-28 17:15:00,
2013-01-28 11:20:00,72.4,66.6,29.99,SSE,161,7.0,12.0,82,0.00,,---,0.00,VWS V14.01,2013-01-28 17:20:00,
2013-01-28 11:25:00,72.7,66.2,29.99,SE,143,12.0,15.0,80,0.00,,---,0.00,VWS V14.01,2013-01-28 17:25:00,
2013-01-28 11:30:00,72.8,66.3,29.99,SE,142,6.0,15.0,80,0.00,,---,0.00,VWS V14.01,2013-01-28 17:30:00,
2013-01-28 11:35:00,73.2,66.7,29.99,East,87,6.0,11.0,80,0.00,,---,0.00,VWS V14.01,2013-01-28 17:35:00,
2013-01-28 11:40:00,73.5,66.6,29.99,SSE,160,9.0,14.0,79,0.00,,---,0.00,VWS V14.01,2013-01-28 17:40:00,
2013-01-28 11:45:00,73.7,66.4,29.98,South,179,8.0,19.0,78,0.00,,---,0.00,VWS V14.01,2013-01-28 17:45:00,
2013-01-28 11:50:00,73.9,66.6,29.98,SSW,210,8.0,19.0,78,0.00,,---,0.00,VWS V14.01,2013-01-28 17:50:00,
2013-01-28 11:55:00,74.0,66.7,29.98,SSE,150,8.0,19.0,78,0.00,,---,0.00,VWS V14.01,2013-01-28 17:55:00,
2013-01-28 12:00:00,74.0,66.3,29.98,South,177,5.0,19.0,77,0.00,,---,0.00,VWS V14.01,2013-01-28 18:00:00,
2013-01-28 12:05:00,73.9,66.2,29.97,SSW,197,5.0,12.0,77,0.00,,---,0.00,VWS V14.01,2013-01-28 18:05:00,
2013-01-28 12:10:00,73.9,66.2,29.97,SSW,198,5.0,13.0,77,0.00,,---,0.00,VWS V14.01,2013-01-28 18:10:00,
2013-01-28 12:15:00,73.8,66.2,29.97,SSE,153,8.0,14.0,77,0.00,,---,0.00,VWS V14.01,2013-01-28 18:15:00,
2013-01-28 12:20:00,73.7,66.1,29.96,South,184,9.0,15.0,77,0.00,,---,0.00,VWS V14.01,2013-01-28 18:20:00,
2013-01-28 12:25:00,73.8,66.2,29.96,SSE,158,7.0,15.0,77,0.00,,---,0.00,VWS V14.01,2013-01-28 18:25:00,
2013-01-28 12:30:00,74.1,66.4,29.96,SSW,194,9.0,15.0,77,0.00,,---,0.00,VWS V14.01,2013-01-28 18:30:00,
2013-01-28 12:35:00,74.1,66.1,29.95,SE,134,7.0,14.0,76,0.00,,---,0.00,VWS V14.01,2013-01-28 18:35:00,
2013-01-28 12:40:00,74.1,66.1,29.95,SSE,162,12.0,15.0,76,0.00,,---,0.00,VWS V14.01,2013-01-28 18:40:00,
2013-01-28 12:45:00,74.1,66.1,29.94,ESE,122,6.0,15.0,76,0.00,,---,0.00,VWS V14.01,2013-01-28 18:45:00,
2013-01-28 12:50:00,74.1,66.1,29.94,ESE,115,6.0,15.0,76,0.00,,---,0.00,VWS V14.01,2013-01-28 18:50:00,
2013-01-28 12:55:00,74.2,66.2,29.94,SE,139,5.0,15.0,76,0.00,,---,0.00,VWS V14.01,2013-01-28 18:55:00,
2013-01-28 13:00:00,74.2,66.2,29.93,SSW,198,7.0,15.0,76,0.00,,---,0.00,VWS V14.01,2013-01-28 19:00:00,
2013-01-28 13:05:00,74.0,66.0,29.93,ESE,121,6.0,13.0,76,0.00,,---,0.00,VWS V14.01,2013-01-28 19:05:00,
2013-01-28 13:10:00,74.0,66.0,29.93,SSE,153,5.0,13.0,76,0.00,,---,0.00,VWS V14.01,2013-01-28 19:10:00,
2013-01-28 13:15:00,74.2,65.8,29.92,SE,129,5.0,13.0,75,0.00,,---,0.00,VWS V14.01,2013-01-28 19:15:00,
2013-01-28 13:20:00,74.0,65.6,29.92,SE,124,9.0,14.0,75,0.00,,---,0.00,VWS V14.01,2013-01-28 19:20:00,
2013-01-28 13:25:00,73.8,65.4,29.92,South,179,7.0,16.0,75,0.00,,---,0.00,VWS V14.01,2013-01-28 19:25:00,
2013-01-28 13:30:00,73.7,65.3,29.92,SE,127,7.0,16.0,75,0.00,,---,0.00,VWS V14.01,2013-01-28 19:30:00,
2013-01-28 13:35:00,73.7,65.7,29.92,SSE,153,7.0,16.0,76,0.00,,---,0.00,VWS V14.01,2013-01-28 19:35:00,
2013-01-28 13:40:00,73.8,65.4,29.91,SSE,160,5.0,16.0,75,0.00,,---,0.00,VWS V14.01,2013-01-28 19:40:00,
2013-01-28 13:45:00,73.8,65.4,29.91,South,173,7.0,16.0,75,0.00,,---,0.00,VWS V14.01,2013-01-28 19:45:00,
2013-01-28 13:50:00,73.9,65.5,29.91,SE,140,5.0,16.0,75,0.00,,---,0.00,VWS V14.01,2013-01-28 19:50:00,
2013-01-28 13:55:00,73.9,65.1,29.91,SSE,148,5.0,16.0,74,0.00,,---,0.00,VWS V14.01,2013-01-28 19:55:00,
2013-01-28 14:00:00,73.9,65.1,29.90,ESE,109,4.0,16.0,74,0.00,,---,0.00,VWS V14.01,2013-01-28 20:00:00,
2013-01-28 14:05:00,73.9,65.1,29.90,South,181,4.0,11.0,74,0.00,,---,0.00,VWS V14.01,2013-01-28 20:05:00,
2013-01-28 14:10:00,74.0,65.2,29.90,SSE,159,5.0,14.0,74,0.00,,---,0.00,VWS V14.01,2013-01-28 20:10:00,
2013-01-28 14:15:00,74.0,65.2,29.89,ESE,105,8.0,14.0,74,0.00,,---,0.00,VWS V14.01,2013-01-28 20:15:00,
2013-01-28 14:20:00,74.2,65.4,29.89,SSE,157,6.0,14.0,74,0.00,,---,0.00,VWS V14.01,2013-01-28 20:20:00,
2013-01-28 14:25:00,74.5,65.7,29.89,ESE,122,6.0,15.0,74,0.00,,---,0.00,VWS V14.01,2013-01-28 20:25:00,
2013-01-28 14:30:00,74.9,65.7,29.89,SE,138,7.0,15.0,73,0.00,,---,0.00,VWS V14.01,2013-01-28 20:30:00,
2013-01-28 14:35:00,75.0,65.8,29.88,SE,127,6.0,14.0,73,0.00,,---,0.00,VWS V14.01,2013-01-28 20:35:00,
2013-01-28 14:39:00,75.1,65.5,29.88,SE,128,5.0,14.0,72,0.00,,---,0.00,VWS V14.01,2013-01-28 20:39:00,
2013-01-28 14:44:00,75.1,65.5,29.88,SE,139,5.0,14.0,72,0.00,,---,0.00,VWS V14.01,2013-01-28 20:44:00,
2013-01-28 14:49:00,74.7,65.9,29.88,ENE,78,11.0,14.0,74,0.00,,---,0.00,VWS V14.01,2013-01-28 20:49:00,
2013-01-28 14:54:00,74.1,65.7,29.88,ESE,103,5.0,15.0,75,0.00,,---,0.00,VWS V14.01,2013-01-28 20:54:00,
2013-01-28 14:59:00,74.1,66.1,29.87,East,89,10.0,15.0,76,0.00,,---,0.00,VWS V14.01,2013-01-28 20:59:00,
2013-01-28 15:04:00,73.9,65.9,29.87,ESE,123,9.0,12.0,76,0.00,,---,0.00,VWS V14.01,2013-01-28 21:04:00,
2013-01-28 15:09:00,73.8,65.8,29.87,SE,141,9.0,14.0,76,0.00,,---,0.00,VWS V14.01,2013-01-28 21:09:00,
2013-01-28 15:14:00,73.9,65.9,29.87,East,96,9.0,14.0,76,0.00,,---,0.00,VWS V14.01,2013-01-28 21:14:00,
2013-01-28 15:19:00,73.7,66.1,29.87,East,80,7.0,19.0,77,0.00,,---,0.00,VWS V14.01,2013-01-28 21:19:00,
2013-01-28 15:24:00,73.5,65.9,29.86,ESE,123,7.0,19.0,77,0.00,,---,0.00,VWS V14.01,2013-01-28 21:24:00,
2013-01-28 15:29:00,73.6,65.9,29.86,ESE,117,9.0,19.0,77,0.00,,---,0.00,VWS V14.01,2013-01-28 21:29:00,
2013-01-28 15:34:00,73.7,66.1,29.86,South,180,4.0,10.0,77,0.00,,---,0.00,VWS V14.01,2013-01-28 21:34:00,
2013-01-28 15:39:00,73.7,66.1,29.86,SE,130,6.0,14.0,77,0.00,,---,0.00,VWS V14.01,2013-01-28 21:39:00,
2013-01-28 15:44:00,73.6,65.9,29.86,ESE,115,5.0,15.0,77,0.00,,---,0.00,VWS V14.01,2013-01-28 21:44:00,
2013-01-28 15:49:00,73.7,66.1,29.86,SSE,158,3.0,15.0,77,0.00,,---,0.00,VWS V14.01,2013-01-28 21:49:00,
2013-01-28 15:54:00,73.5,65.9,29.86,ESE,117,8.0,15.0,77,0.00,,---,0.00,VWS V14.01,2013-01-28 21:54:00,
2013-01-28 15:59:00,73.3,66.0,29.86,ESE,110,5.0,15.0,78,0.00,,---,0.00,VWS V14.01,2013-01-28 21:59:00,
2013-01-28 16:04:00,73.1,65.8,29.85,East,96,10.0,15.0,78,0.00,,---,0.00,VWS V14.01,2013-01-28 22:04:00,
2013-01-28 16:09:00,73.0,65.7,29.85,ENE,65,5.0,15.0,78,0.00,,---,0.00,VWS V14.01,2013-01-28 22:09:00,
2013-01-28 16:14:00,72.9,65.7,29.85,SSE,148,5.0,15.0,78,0.00,,---,0.00,VWS V14.01,2013-01-28 22:14:00,
2013-01-28 16:19:00,72.9,66.0,29.85,SSE,156,4.0,15.0,79,0.00,,---,0.00,VWS V14.01,2013-01-28 22:19:00,
2013-01-28 16:24:00,73.0,65.7,29.85,East,96,6.0,15.0,78,0.00,,---,0.00,VWS V14.01,2013-01-28 22:24:00,
2013-01-28 16:29:00,73.1,65.8,29.85,SSE,154,5.0,15.0,78,0.00,,---,0.00,VWS V14.01,2013-01-28 22:29:00,
2013-01-28 16:34:00,73.1,65.8,29.85,ESE,120,5.0,10.0,78,0.00,,---,0.00,VWS V14.01,2013-01-28 22:34:00,
2013-01-28 16:39:00,73.1,65.8,29.85,SSE,167,5.0,15.0,78,0.00,,---,0.00,VWS V14.01,2013-01-28 22:39:00,
2013-01-28 16:44:00,73.1,65.8,29.85,East,84,5.0,15.0,78,0.00,,---,0.00,VWS V14.01,2013-01-28 22:44:00,
2013-01-28 16:49:00,73.2,65.9,29.85,SE,125,6.0,15.0,78,0.00,,---,0.00,VWS V14.01,2013-01-28 22:49:00,
2013-01-28 16:54:00,73.2,65.9,29.85,SE,124,8.0,15.0,78,0.00,,---,0.00,VWS V14.01,2013-01-28 22:54:00,
2013-01-28 16:59:00,73.2,65.9,29.85,SSE,158,7.0,15.0,78,0.00,,---,0.00,VWS V14.01,2013-01-28 22:59:00,
2013-01-28 17:04:00,73.2,65.9,29.84,ESE,106,6.0,12.0,78,0.00,,---,0.00,VWS V14.01,2013-01-28 23:04:00,
2013-01-28 17:09:00,73.2,65.9,29.84,South,177,9.0,14.0,78,0.00,,---,0.00,VWS V14.01,2013-01-28 23:09:00,
2013-01-28 17:14:00,73.1,65.8,29.84,South,172,4.0,14.0,78,0.00,,---,0.00,VWS V14.01,2013-01-28 23:14:00,
2013-01-28 17:19:00,73.1,65.8,29.84,South,169,4.0,15.0,78,0.00,,---,0.00,VWS V14.01,2013-01-28 23:19:00,
2013-01-28 17:24:00,73.1,65.8,29.84,ESE,105,8.0,15.0,78,0.00,,---,0.00,VWS V14.01,2013-01-28 23:24:00,
2013-01-28 17:29:00,73.1,65.8,29.84,East,99,7.0,15.0,78,0.00,,---,0.00,VWS V14.01,2013-01-28 23:29:00,
2013-01-28 17:34:00,73.0,65.7,29.84,East,96,3.0,10.0,78,0.00,,---,0.00,VWS V14.01,2013-01-28 23:34:00,
2013-01-28 17:39:00,73.0,66.1,29.85,ESE,115,3.0,15.0,79,0.00,,---,0.00,VWS V14.01,2013-01-28 23:39:00,
2013-01-28 17:44:00,72.9,66.0,29.85,SE,129,6.0,15.0,79,0.00,,---,0.00,VWS V14.01,2013-01-28 23:44:00,
2013-01-28 17:49:00,72.8,65.9,29.85,SSE,152,6.0,15.0,79,0.00,,---,0.00,VWS V14.01,2013-01-28 23:49:00,
2013-01-28 17:54:00,72.8,65.9,29.85,ESE,123,3.0,15.0,79,0.00,,---,0.00,VWS V14.01,2013-01-28 23:54:00,
2013-01-28 17:59:00,72.7,65.8,29.85,SE,129,4.0,15.0,79,0.00,,---,0.00,VWS V14.01,2013-01-28 23:59:00,
2013-01-28 18:04:00,72.7,65.8,29.85,East,98,4.0,10.0,79,0.00,,---,0.00,VWS V14.01,2013-01-29 00:04:00,
2013-01-28 18:09:00,72.6,65.7,29.84,ESE,108,5.0,10.0,79,0.00,,---,0.00,VWS V14.01,2013-01-29 00:09:00,
2013-01-28 18:14:00,72.5,66.0,29.84,ESE,117,5.0,11.0,80,0.00,,---,0.00,VWS V14.01,2013-01-29 00:14:00,
2013-01-28 18:19:00,72.4,65.9,29.84,ESE,123,6.0,11.0,80,0.00,,---,0.00,VWS V14.01,2013-01-29 00:19:00,
2013-01-28 18:24:00,72.3,65.8,29.85,ESE,120,5.0,11.0,80,0.00,,---,0.00,VWS V14.01,2013-01-29 00:24:00,
2013-01-28 18:29:00,72.3,65.8,29.85,SE,134,4.0,11.0,80,0.00,,---,0.00,VWS V14.01,2013-01-29 00:29:00,
2013-01-28 18:34:00,72.3,65.8,29.85,ESE,122,7.0,12.0,80,0.00,,---,0.00,VWS V14.01,2013-01-29 00:34:00,
2013-01-28 18:39:00,72.3,65.8,29.85,East,94,5.0,12.0,80,0.00,,---,0.00,VWS V14.01,2013-01-29 00:39:00,
2013-01-28 18:44:00,72.2,65.7,29.85,ESE,120,6.0,12.0,80,0.00,,---,0.00,VWS V14.01,2013-01-29 00:44:00,
2013-01-28 18:49:00,72.3,65.8,29.85,ESE,121,5.0,13.0,80,0.00,,---,0.00,VWS V14.01,2013-01-29 00:49:00,
2013-01-28 18:54:00,72.3,65.8,29.85,ESE,113,4.0,13.0,80,0.00,,---,0.00,VWS V14.01,2013-01-29 00:54:00,
2013-01-28 18:59:00,72.3,65.8,29.85,SSE,148,4.0,13.0,80,0.00,,---,0.00,VWS V14.01,2013-01-29 00:59:00,
2013-01-28 19:04:00,72.3,66.2,29.86,ESE,118,7.0,8.0,81,0.00,,---,0.00,VWS V14.01,2013-01-29 01:04:00,
2013-01-28 19:09:00,72.3,66.2,29.86,ESE,122,3.0,10.0,81,0.00,,---,0.00,VWS V14.01,2013-01-29 01:09:00,
2013-01-28 19:14:00,72.2,66.1,29.86,ESE,108,4.0,10.0,81,0.00,,---,0.00,VWS V14.01,2013-01-29 01:14:00,
2013-01-28 19:19:00,72.1,65.9,29.86,ENE,77,7.0,11.0,81,0.00,,---,0.00,VWS V14.01,2013-01-29 01:19:00,
2013-01-28 19:24:00,72.1,65.9,29.86,South,188,5.0,12.0,81,0.00,,---,0.00,VWS V14.01,2013-01-29 01:24:00,
2013-01-28 19:29:00,72.0,65.9,29.86,ESE,115,4.0,12.0,81,0.00,,---,0.00,VWS V14.01,2013-01-29 01:29:00,
2013-01-28 19:34:00,71.9,65.8,29.87,ESE,113,9.0,9.0,81,0.00,,---,0.00,VWS V14.01,2013-01-29 01:34:00,
2013-01-28 19:39:00,71.8,66.0,29.87,SSE,152,7.0,12.0,82,0.00,,---,0.00,VWS V14.01,2013-01-29 01:39:00,
2013-01-28 19:44:00,71.7,65.9,29.87,SSE,152,3.0,12.0,82,0.00,,---,0.00,VWS V14.01,2013-01-29 01:44:00,
2013-01-28 19:49:00,71.6,65.8,29.87,East,89,8.0,12.0,82,0.00,,---,0.00,VWS V14.01,2013-01-29 01:49:00,
2013-01-28 19:54:00,71.5,66.1,29.87,ESE,106,6.0,12.0,83,0.00,,---,0.00,VWS V14.01,2013-01-29 01:54:00,
2013-01-28 19:59:00,71.4,66.0,29.87,ESE,102,5.0,12.0,83,0.00,,---,0.00,VWS V14.01,2013-01-29 01:59:00,
2013-01-28 20:04:00,71.3,65.9,29.88,SSW,212,3.0,8.0,83,0.00,,---,0.00,VWS V14.01,2013-01-29 02:04:00,
2013-01-28 20:09:00,71.2,65.8,29.88,ESE,115,5.0,8.0,83,0.00,,---,0.00,VWS V14.01,2013-01-29 02:09:00,
2013-01-28 20:14:00,71.1,66.0,29.88,SE,135,5.0,9.0,84,0.00,,---,0.00,VWS V14.01,2013-01-29 02:14:00,
2013-01-28 20:19:00,71.0,65.9,29.88,East,96,3.0,10.0,84,0.00,,---,0.00,VWS V14.01,2013-01-29 02:19:00,
2013-01-28 20:24:00,70.9,65.8,29.87,ESE,113,4.0,10.0,84,0.00,,---,0.00,VWS V14.01,2013-01-29 02:24:00,
2013-01-28 20:29:00,70.9,66.2,29.87,ESE,112,9.0,11.0,85,0.00,,---,0.00,VWS V14.01,2013-01-29 02:29:00,
2013-01-28 20:34:00,70.8,66.1,29.87,ESE,110,4.0,10.0,85,0.00,,---,0.00,VWS V14.01,2013-01-29 02:34:00,
2013-01-28 20:39:00,70.7,66.0,29.87,ESE,108,5.0,10.0,85,0.00,,---,0.00,VWS V14.01,2013-01-29 02:39:00,
2013-01-28 20:44:00,70.7,66.0,29.87,ESE,115,5.0,10.0,85,0.00,,---,0.00,VWS V14.01,2013-01-29 02:44:00,
2013-01-28 20:49:00,70.6,66.2,29.87,South,173,5.0,12.0,86,0.00,,---,0.00,VWS V14.01,2013-01-29 02:49:00,
2013-01-28 20:54:00,70.7,66.3,29.87,East,94,9.0,14.0,86,0.00,,---,0.00,VWS V14.01,2013-01-29 02:54:00,
2013-01-28 20:59:00,70.6,66.2,29.87,ESE,113,6.0,14.0,86,0.00,,---,0.00,VWS V14.01,2013-01-29 02:59:00,
2013-01-28 21:04:00,70.6,66.2,29.87,SE,133,6.0,11.0,86,0.00,,---,0.00,VWS V14.01,2013-01-29 03:04:00,
2013-01-28 21:09:00,70.6,66.2,29.87,ESE,123,6.0,14.0,86,0.00,,---,0.00,VWS V14.01,2013-01-29 03:09:00,
2013-01-28 21:14:00,70.6,66.2,29.87,SE,124,2.0,14.0,86,0.00,,---,0.00,VWS V14.01,2013-01-29 03:14:00,
2013-01-28 21:19:00,70.6,66.2,29.87,ESE,106,9.0,14.0,86,0.00,,---,0.00,VWS V14.01,2013-01-29 03:19:00,
2013-01-28 21:24:00,70.6,66.2,29.87,ESE,115,4.0,14.0,86,0.00,,---,0.00,VWS V14.01,2013-01-29 03:24:00,
2013-01-28 21:29:00,70.5,66.4,29.87,ESE,113,12.0,14.0,87,0.00,,---,0.00,VWS V14.01,2013-01-29 03:29:00,
2013-01-28 21:34:00,70.6,66.6,29.87,ESE,102,4.0,12.0,87,0.00,,---,0.00,VWS V14.01,2013-01-29 03:34:00,
2013-01-28 21:39:00,70.6,66.6,29.87,SE,132,5.0,13.0,87,0.00,,---,0.00,VWS V14.01,2013-01-29 03:39:00,
2013-01-28 21:44:00,70.5,66.4,29.87,SSE,152,6.0,14.0,87,0.00,,---,0.00,VWS V14.01,2013-01-29 03:44:00,
2013-01-28 21:49:00,70.5,66.4,29.87,SE,138,3.0,14.0,87,0.00,,---,0.00,VWS V14.01,2013-01-29 03:49:00,
2013-01-28 21:54:00,70.5,66.4,29.87,SSW,207,7.0,14.0,87,0.00,,---,0.00,VWS V14.01,2013-01-29 03:54:00,
2013-01-28 21:59:00,70.4,66.3,29.87,ESE,106,6.0,15.0,87,0.00,,---,0.00,VWS V14.01,2013-01-29 03:59:00,
2013-01-28 22:04:00,70.4,66.7,29.86,SE,129,12.0,12.0,88,0.00,,---,0.00,VWS V14.01,2013-01-29 04:04:00,
2013-01-28 22:09:00,70.4,66.7,29.86,South,181,4.0,12.0,88,0.00,,---,0.00,VWS V14.01,2013-01-29 04:09:00,
2013-01-28 22:14:00,70.3,66.6,29.86,SE,127,6.0,12.0,88,0.00,,---,0.00,VWS V14.01,2013-01-29 04:14:00,
2013-01-28 22:19:00,70.4,66.7,29.86,ESE,110,4.0,13.0,88,0.00,,---,0.00,VWS V14.01,2013-01-29 04:19:00,
2013-01-28 22:24:00,70.3,66.6,29.86,SE,125,7.0,14.0,88,0.00,,---,0.00,VWS V14.01,2013-01-29 04:24:00,
2013-01-28 22:29:00,70.3,66.6,29.86,ESE,108,5.0,14.0,88,0.00,,---,0.00,VWS V14.01,2013-01-29 04:29:00,
2013-01-28 22:34:00,70.3,66.6,29.86,SE,125,4.0,12.0,88,0.00,,---,0.00,VWS V14.01,2013-01-29 04:34:00,
2013-01-28 22:39:00,70.3,66.6,29.86,SE,146,2.0,12.0,88,0.00,,---,0.00,VWS V14.01,2013-01-29 04:39:00,
2013-01-28 22:44:00,70.3,66.6,29.87,SSE,165,4.0,12.0,88,0.00,,---,0.00,VWS V14.01,2013-01-29 04:44:00,
2013-01-28 22:49:00,70.2,66.5,29.86,SW,217,8.0,12.0,88,0.00,,---,0.00,VWS V14.01,2013-01-29 04:49:00,
2013-01-28 22:54:00,70.2,66.5,29.86,ESE,117,7.0,12.0,88,0.00,,---,0.00,VWS V14.01,2013-01-29 04:54:00,
2013-01-28 22:59:00,70.2,66.5,29.86,East,91,5.0,12.0,88,0.00,,---,0.00,VWS V14.01,2013-01-29 04:59:00,
2013-01-28 23:00:00,70.2,66.5,29.86,SSE,162,7.0,12.0,88,0.00,,---,0.00,VWS V14.01,2013-01-29 05:00:00,
2013-01-28 23:01:00,70.1,66.4,29.86,SE,141,5.0,9.0,88,0.00,,---,0.00,VWS V14.01,2013-01-29 05:01:00,
2013-01-28 23:07:00,70.2,66.5,29.86,SE,127,6.0,6.0,88,0.00,,,0.00,Wunderground v.1.15,2013-01-29 05:07:00,
2013-01-28 23:08:00,70.2,66.5,29.86,SSE,154,3.0,3.0,88,0.00,,---,0.00,VWS V14.01,2013-01-29 05:08:00,
2013-01-28 23:13:00,70.2,66.2,29.85,ESE,108,7.0,10.0,87,0.00,,---,0.00,VWS V14.01,2013-01-29 05:13:00,
2013-01-28 23:18:00,70.2,66.2,29.85,SSE,150,6.0,11.0,87,0.00,,---,0.00,VWS V14.01,2013-01-29 05:18:00,
2013-01-28 23:23:00,70.2,66.2,29.85,SE,139,4.0,11.0,87,0.00,,---,0.00,VWS V14.01,2013-01-29 05:23:00,
2013-01-28 23:28:00,70.1,66.1,29.85,East,94,5.0,11.0,87,0.00,,---,0.00,VWS V14.01,2013-01-29 05:28:00,
2013-01-28 23:33:00,70.1,66.1,29.84,South,185,5.0,11.0,87,0.00,,---,0.00,VWS V14.01,2013-01-29 05:33:00,
2013-01-28 23:38:00,70.1,66.1,29.84,ESE,110,11.0,11.0,87,0.00,,---,0.00,VWS V14.01,2013-01-29 05:38:00,
2013-01-28 23:43:00,70.0,66.0,29.83,SE,129,6.0,17.0,87,0.00,,---,0.00,VWS V14.01,2013-01-29 05:43:00,
2013-01-28 23:48:00,70.0,66.0,29.83,East,84,6.0,17.0,87,0.00,,---,0.00,VWS V14.01,2013-01-29 05:48:00,
2013-01-28 23:52:00,69.9,66.2,29.83,SSE,166,5.0,17.0,88,0.00,,---,0.00,VWS V14.01,2013-01-29 05:52:00,
2013-01-28 23:57:00,69.8,66.1,29.83,SE,129,5.0,17.0,88,0.00,,---,0.00,VWS V14.01,2013-01-29 05:57:00,